Weather History for Flora, IL

Change the Weather History Date:

Thursday, March 20, 2014

  Actual Average (KEVV) Record (KEVV)
Temperature  
Mean Temperature 44 °F 47 °F  
Max Temperature 63 °F 58 °F 84 °F (2012)
Min Temperature 24 °F 36 °F 12 °F (1965)
Degree Days  
Heating Degree Days 22 18  
Month to date heating degree days 417  
Since 1 July heating degree days 3991  
Cooling Degree Days 0 0  
Month to date cooling degree days 0  
Year to date cooling degree days 0  
Moisture  
Dew Point 28 °F    
Average Humidity 70    
Maximum Humidity 100    
Minimum Humidity 27    
Precipitation  
Precipitation 0.00 in 0.14 in 2.05 in (1955)
Month to date precipitation 2.61  
Year to date precipitation 8.88  
Snow  
Snow 0.00 in 0.00 in 3.00 in (1996)
Month to date snowfall 0.8  
Since 1 July snowfall 11.5  
Snow Depth -    
Sea Level Pressure  
Sea Level Pressure 30.07 in    
Wind  
Wind Speed 6 mph (SW)    
Max Wind Speed 17 mph    
Max Gust Speed 21 mph    
Visibility 8 miles    
Events      
T = Trace of Precipitation, MM = Missing Value Source: NWS Daily Summary

Daily Weather History Graph

Daily Weather History Graph

Search for Another Location

Airport:

Trip Planner

Search our weather history database for the weather conditions in past years. The results will help you decide how hot, cold, wet, or windy it might be!

Date:

Astronomy

Mar. 20, 2014 Rise Set
Actual Time 6:57 AM CDT 7:05 PM CDT
Civil Twilight 6:30 AM CDT 7:32 PM CDT
Nautical Twilight 5:59 AM CDT 8:03 PM CDT
Astronomical Twilight 5:28 AM CDT 8:34 PM CDT
Moon 11:22 PM CDT (3/20) 9:05 AM CDT (3/20)
Length of Visible Light 13h 01m
Length of Day
12h 08m
Waning Gibbous, 84% of the Moon is Illuminated
Mar 20
Waning Gibbous
Mar 23
Last Quarter
Mar 30
New
Apr 7
First Quarter
Apr 15
Full

Hourly Weather History & Observations

Time (CDT) Temp. Windchill Dew Point Humidity Pressure Visibility Wind Dir Wind Speed Gust Speed Precip Events Conditions
12:18 AM 30.2 °F 25.4 °F 28.4 °F 93% 30.16 in 10.0 mi WNW 4.6 mph - N/A   Clear
12:38 AM 30.2 °F 26.7 °F 26.6 °F 86% 30.16 in 10.0 mi West 3.5 mph - N/A   Clear
12:58 AM 28.4 °F 24.6 °F 26.6 °F 93% 30.15 in 7.0 mi WSW 3.5 mph - N/A   Clear
1:18 AM 26.6 °F - 26.6 °F 100% 30.15 in 7.0 mi Calm Calm - N/A   Clear
1:38 AM 26.6 °F - 26.6 °F 100% 30.15 in 7.0 mi Calm Calm - N/A   Clear
1:58 AM 26.6 °F - 26.6 °F 100% 30.15 in 7.0 mi Calm Calm - N/A   Clear
2:18 AM 26.6 °F - 24.8 °F 93% 30.14 in 7.0 mi Calm Calm - N/A   Clear
2:38 AM 26.6 °F - 24.8 °F 93% 30.14 in 7.0 mi Calm Calm - N/A   Clear
2:58 AM 26.6 °F 22.6 °F 24.8 °F 93% 30.14 in 5.0 mi SW 3.5 mph - N/A   Clear
3:18 AM 24.8 °F 20.5 °F 24.8 °F 100% 30.14 in 5.0 mi SW 3.5 mph - N/A   Clear
3:38 AM 26.6 °F 21.2 °F 26.6 °F 100% 30.14 in 5.0 mi SW 4.6 mph - N/A   Clear
3:58 AM 24.8 °F 20.5 °F 24.8 °F 100% 30.13 in 5.0 mi SSW 3.5 mph - N/A   Clear
4:18 AM 24.8 °F 20.5 °F 24.8 °F 100% 30.14 in 5.0 mi SSW 3.5 mph - N/A   Clear
4:38 AM 24.8 °F 20.5 °F 24.8 °F 100% 30.14 in 5.0 mi SW 3.5 mph - N/A   Clear
4:58 AM 24.8 °F 19.1 °F 24.8 °F 100% 30.15 in 5.0 mi SW 4.6 mph - N/A   Clear
5:18 AM 26.6 °F 22.6 °F 24.8 °F 93% 30.14 in 5.0 mi SW 3.5 mph - N/A   Clear
5:38 AM 24.8 °F 20.5 °F 24.8 °F 100% 30.14 in 5.0 mi SSW 3.5 mph - N/A   Clear
5:58 AM 24.8 °F 20.5 °F 24.8 °F 100% 30.15 in 5.0 mi SW 3.5 mph - N/A   Clear
6:18 AM 24.8 °F 19.1 °F 24.8 °F 100% 30.15 in 5.0 mi SSW 4.6 mph - N/A   Clear
6:38 AM 24.8 °F 17.9 °F 24.8 °F 100% 30.15 in 5.0 mi SSW 5.8 mph - N/A   Clear
6:58 AM 24.8 °F 20.5 °F 24.8 °F 100% 30.15 in 4.0 mi SSW 3.5 mph - N/A   Clear
7:18 AM 24.8 °F 20.5 °F 24.8 °F 100% 30.15 in 4.0 mi South 3.5 mph - N/A   Clear
7:38 AM 26.6 °F 21.2 °F 26.6 °F 100% 30.15 in 4.0 mi South 4.6 mph - N/A   Clear
7:58 AM 30.2 °F 23.4 °F 30.2 °F 100% 30.15 in 5.0 mi South 6.9 mph - N/A   Clear
8:18 AM 33.8 °F 27.0 °F 30.2 °F 87% 30.15 in 7.0 mi SSW 8.1 mph - N/A   Clear
8:38 AM 35.6 °F 29.2 °F 32.0 °F 87% 30.15 in 7.0 mi South 8.1 mph - N/A   Clear
3:15 PM - - - N/A% 30.03 in - WSW 16.1 mph - N/A   Unknown
3:17 PM 62.6 °F - 28.4 °F 27% 30.03 in - WSW 10.4 mph - N/A   Unknown
3:35 PM 61.9 °F - 29.3 °F 29% 30.02 in 10.0 mi West 17.3 mph 20.7 mph N/A   Clear
3:55 PM 62.6 °F - 28.9 °F 28% 30.02 in 10.0 mi WSW 15.0 mph 18.4 mph N/A   Clear
4:15 PM 62.1 °F - 28.0 °F 28% 30.01 in 10.0 mi West 13.8 mph 18.4 mph N/A   Clear
4:35 PM 63.3 °F - 29.1 °F 28% 30.00 in 10.0 mi WSW 11.5 mph 16.1 mph N/A   Clear
4:55 PM 62.6 °F - 27.9 °F 27% 29.99 in 10.0 mi WSW 11.5 mph 17.3 mph N/A   Clear
5:15 PM 61.9 °F - 28.0 °F 28% 29.99 in 10.0 mi West 9.2 mph - N/A   Clear
5:35 PM 61.7 °F - 28.6 °F 29% 29.99 in 10.0 mi WSW 8.1 mph - N/A   Clear
5:55 PM 61.7 °F - 29.1 °F 29% 29.99 in 10.0 mi WSW 9.2 mph - N/A   Clear
6:15 PM 60.1 °F - 30.0 °F 32% 29.99 in 10.0 mi SSW 10.4 mph - N/A   Clear
6:35 PM 57.7 °F - 30.9 °F 36% 29.99 in 10.0 mi SSW 6.9 mph - N/A   Clear
6:55 PM 55.6 °F - 31.3 °F 40% 29.98 in 10.0 mi South 8.1 mph - N/A   Clear
7:15 PM 52.5 °F - 31.8 °F 45% 29.98 in 10.0 mi South 8.1 mph - N/A   Clear
7:35 PM 51.1 °F - 31.5 °F 47% 29.99 in 10.0 mi South 6.9 mph - N/A   Clear
7:55 PM 50.4 °F - 32.0 °F 49% 29.99 in 10.0 mi South 9.2 mph - N/A   Clear
8:15 PM 47.8 °F - 32.2 °F 55% 29.99 in 10.0 mi South 9.2 mph - N/A   Clear
8:35 PM 47.5 °F - 32.4 °F 56% 30.00 in 10.0 mi South 9.2 mph - N/A   Clear
8:55 PM 47.7 °F - 32.4 °F 55% 30.00 in 10.0 mi South 9.2 mph - N/A   Clear
9:15 PM 49.6 °F - 32.5 °F 52% 30.00 in 10.0 mi SSW 10.4 mph - N/A   Clear
9:35 PM 49.1 °F - 32.5 °F 53% 30.01 in 10.0 mi South 9.2 mph - N/A   Clear
9:55 PM 48.0 °F - 32.5 °F 55% 30.00 in 10.0 mi SSW 10.4 mph - N/A   Clear
10:15 PM 47.5 °F - 32.5 °F 56% 30.00 in 10.0 mi South 10.4 mph - N/A   Clear
10:35 PM 47.7 °F - 32.4 °F 55% 30.00 in 10.0 mi SSW 10.4 mph - N/A   Clear
10:55 PM 48.0 °F - 32.2 °F 54% 30.00 in 10.0 mi SSW 11.5 mph - N/A   Clear
11:15 PM 47.3 °F - 32.4 °F 56% 30.00 in 10.0 mi SSW 10.4 mph - N/A   Clear
11:35 PM 46.4 °F 41.9 °F 32.4 °F 58% 29.99 in 10.0 mi South 9.2 mph - N/A   Clear